Flag for U.S.A. Weather past 2 weeks in Jackson, Mississippi, U.S.A.

Now
69 °F

Light rain. Fog.


Feels Like: 69 °F
Forecast: 65 / 80 °F
Wind: 6 mph from East

Location: Hawkins Field

Current Time: Apr 18, 2015 at 7:20:29 PM

Latest Report: Apr 18, 2015 at 6:53 PM


Visibility: 5 mi

Pressure: 29.81 "Hg

Humidity: 90%

Dew point: 66 °F

Location of JacksonLocation

Historic Weather in Jackson — Graph

°F

Jackson temperature yesterday

Maximum temperature yesterday: 77 °F (at 4:53 PM)
Minimum temperature yesterday: 64 °F (at 1:53 AM)
Average temperature yesterday: 70 °F

Past Weeks' High & Low Weather Summary

 TemperatureHumidityPressure
High85 °F (Apr 8, 3:53 PM)97% (Apr 14, 10:53 PM)30.32 "Hg (Apr 14, 10:53 PM)
Low48 °F (Apr 5, 6:53 AM)27% (Apr 4, 4:53 PM)29.83 "Hg (Apr 18, 4:53 PM)
Average68 °F78%30.03 "Hg
* Reported Apr 3 6:53 PM — Apr 18 6:01 PM, Jackson, Weather by CustomWeather, © 2015

Note: Actual official high and low records may vary slightly from our data, if they occured in-between our weather recording intervals... More about our weather records

Advertising

Jackson weather history for previous 24 hours

 ConditionsComfort  
Time TempWeatherWind HumidityBarometerVisibility
6:01 PM
Sat, Apr 18
70 °FOvercast.5 mph87%29.84 "Hg10 mi
4:53 PM71 °FMore clouds than sun.8 mph81%29.83 "Hg10 mi
3:53 PM72 °FOvercast.6 mph78%29.83 "Hg10 mi
2:53 PM73 °FMore clouds than sun.No wind76%29.85 "Hg10 mi
1:53 PM71 °FMostly cloudy.3 mph78%29.87 "Hg10 mi
1:04 PM72 °FBroken clouds.5 mph76%29.90 "Hg10 mi
12:53 PM72 °FPartly sunny.7 mph76%29.89 "Hg10 mi
11:53 AM70 °FOvercast.9 mph81%29.90 "Hg9 mi
10:53 AM68 °FLow clouds.6 mph84%29.93 "Hg9 mi
9:53 AM66 °FLow clouds.7 mph87%29.93 "Hg9 mi
8:53 AM65 °FLow clouds.7 mph91%29.93 "Hg8 mi
7:53 AM65 °FFog.9 mph91%29.92 "Hg6 mi
6:53 AM65 °FLow clouds.7 mph91%29.89 "Hg8 mi
5:53 AM65 °FLow clouds.8 mph91%29.91 "Hg9 mi
4:53 AM65 °FLow clouds.8 mph91%29.92 "Hg10 mi
3:53 AM66 °FLow clouds.8 mph87%29.93 "Hg10 mi
2:53 AM66 °FLow clouds.8 mph87%29.93 "Hg10 mi
1:53 AM66 °FLow clouds.6 mph90%29.93 "Hg10 mi
12:53 AM68 °FLow clouds.6 mph87%29.94 "Hg10 mi
12:03 AM67 °FPassing clouds.5 mph93%29.97 "Hg10 mi
11:53 PM
Fri, Apr 17
67 °FClear.5 mph90%29.95 "Hg10 mi
10:53 PM69 °FLow clouds.7 mph87%29.95 "Hg10 mi
9:53 PM70 °FPartly cloudy.3 mph81%29.96 "Hg10 mi
8:53 PM70 °FPassing clouds.5 mph84%29.94 "Hg10 mi
7:53 PM71 °FPartly sunny.3 mph78%29.91 "Hg10 mi
Weather by CustomWeather, © 2015

See weather overviewHow to use our weather pages